| time (UTC) | temp C | wind direction | speed KPH | gust KPH | rain 1hr cm | rain 24hr cm | rain mn cm | humidity % | barometer mb |
| 20260509095403 | 17 | 82 | 4.8 | 12.9 | 0.00 | 0.00 | 0.00 | 60 | 1017.3 |
| 20260509094505 | 17 | 77 | 4.8 | 16.1 | 0.00 | 0.00 | 0.00 | 61 | 1017.2 |
| 20260509093819 | 17 | 86 | 4.8 | 16.1 | 0.00 | 0.00 | 0.00 | 61 | 1017.3 |
| 20260509092703 | 17 | 91 | 4.8 | 14.5 | 0.00 | 0.00 | 0.00 | 62 | 1017.4 |
| 20260509092013 | 17 | 107 | 3.2 | 12.9 | 0.00 | 0.00 | 0.00 | 64 | 1017.4 |
| 20260509090905 | 17 | 89 | 3.2 | 14.5 | 0.00 | 0.00 | 0.00 | 65 | 1017.3 |
| 20260509090005 | 16 | 76 | 3.2 | 12.9 | 0.00 | 0.00 | 0.00 | 66 | 1017.5 |
| 20260509085403 | 16 | 76 | 3.2 | 12.9 | 0.00 | 0.00 | 0.00 | 66 | 1017.4 |
| 20260509084504 | 16 | 55 | 3.2 | 9.7 | 0.00 | 0.00 | 0.00 | 67 | 1017.2 |
| 20260509083605 | 16 | 46 | 1.6 | 8.0 | 0.00 | 0.00 | 0.00 | 70 | 1017.3 |
| 20260509082705 | 15 | 13 | 3.2 | 9.7 | 0.00 | 0.00 | 0.00 | 70 | 1017.2 |
| 20260509081805 | 15 | 43 | 3.2 | 11.3 | 0.00 | 0.00 | 0.00 | 71 | 1017.3 |
| 20260509080905 | 15 | 37 | 3.2 | 11.3 | 0.00 | 0.00 | 0.00 | 73 | 1017.3 |
| 20260509080010 | 15 | 74 | 3.2 | 8.0 | 0.00 | 0.00 | 0.00 | 74 | 1017.5 |
| 20260509075403 | 15 | 82 | 3.2 | 6.4 | 0.00 | 0.00 | 0.00 | 74 | 1017.6 |
| 20260509074505 | 14 | 86 | 3.2 | 12.9 | 0.00 | 0.00 | 0.00 | 76 | 1017.4 |
| 20260509073604 | 13 | 91 | 3.2 | 11.3 | 0.00 | 0.00 | 0.00 | 77 | 1017.4 |
| 20260509072704 | 13 | 62 | 1.6 | 6.4 | 0.00 | 0.00 | 0.00 | 79 | 1017.2 |
| 20260509071805 | 12 | 84 | 1.6 | 9.7 | 0.00 | 0.00 | 0.00 | 81 | 1017.1 |
| 20260509070903 | 12 | 77 | 3.2 | 11.3 | 0.00 | 0.00 | 0.00 | 83 | 1017.0 |
| 20260509070003 | 12 | 88 | 1.6 | 9.7 | 0.00 | 0.00 | 0.00 | 84 | 1017.0 |
| 20260509065403 | 11 | 83 | 1.6 | 9.7 | 0.00 | 0.00 | 0.00 | 85 | 1017.0 |
| 20260509064718 | 11 | 78 | 3.2 | 9.7 | 0.00 | 0.00 | 0.00 | 85 | 1016.8 |
| 20260509063603 | 11 | 70 | 1.6 | 9.7 | 0.00 | 0.00 | 0.00 | 86 | 1016.8 |
| 20260509062703 | 11 | 76 | 1.6 | 6.4 | 0.00 | 0.00 | 0.00 | 86 | 1016.8 |
| 20260509061803 | 10 | 76 | 1.6 | 6.4 | 0.00 | 0.00 | 0.00 | 88 | 1016.9 |
| 20260509060903 | 10 | 77 | 1.6 | 4.8 | 0.00 | 0.00 | 0.00 | 89 | 1016.9 |
| 20260509060008 | 10 | 78 | 1.6 | 8.0 | 0.00 | 0.00 | 0.00 | 90 | 1016.8 |
| 20260509055405 | 9 | 71 | 1.6 | 8.0 | 0.00 | 0.00 | 0.00 | 91 | 1016.9 |
| 20260509054504 | 9 | 66 | 1.6 | 4.8 | 0.00 | 0.00 | 0.00 | 91 | 1016.9 |
| 20260509053816 | 8 | 66 | 0.0 | 3.2 | 0.00 | 0.00 | 0.00 | 92 | 1016.9 |
| 20260509052703 | 8 | 66 | 0.0 | 4.8 | 0.00 | 0.00 | 0.00 | 92 | 1016.9 |
| 20260509051803 | 8 | 66 | 0.0 | 4.8 | 0.00 | 0.00 | 0.00 | 92 | 1016.8 |
| 20260509050903 | 8 | 66 | 0.0 | 4.8 | 0.00 | 0.00 | 0.00 | 92 | 1016.7 |
| 20260509050005 | 8 | 65 | 0.0 | 1.6 | 0.00 | 0.00 | 0.00 | 92 | 1016.7 |
| 20260509045403 | 8 | 65 | 0.0 | 1.6 | 0.00 | 0.00 | 0.00 | 92 | 1016.8 |
| 20260509044503 | 7 | 65 | 0.0 | 3.2 | 0.00 | 0.00 | 0.00 | 91 | 1016.8 |
| 20260509043604 | 7 | 0 | 0.0 | 0.0 | 0.00 | 0.00 | 0.00 | 91 | 1016.7 |
| 20260509042706 | 7 | 66 | 0.0 | 1.6 | 0.00 | 0.00 | 0.00 | 91 | 1016.7 |
| 20260509041805 | 7 | 65 | 0.0 | 1.6 | 0.00 | 0.00 | 0.00 | 90 | 1016.8 |
| 20260509040905 | 8 | 0 | 0.0 | 0.0 | 0.00 | 0.00 | 0.00 | 90 | 1016.8 |
| 20260509040216 | 8 | 0 | 0.0 | 0.0 | 0.00 | 0.00 | 0.00 | 91 | 1016.8 |
| 20260509035613 | 8 | 0 | 0.0 | 0.0 | 0.00 | 0.00 | 0.00 | 90 | 1016.8 |
| 20260509034505 | 8 | 66 | 0.0 | 1.6 | 0.00 | 0.00 | 0.00 | 90 | 1016.8 |
| 20260509033604 | 8 | 66 | 0.0 | 1.6 | 0.00 | 0.00 | 0.00 | 90 | 1016.8 |
| 20260509032915 | 8 | 65 | 0.0 | 1.6 | 0.00 | 0.00 | 0.00 | 90 | 1016.8 |
| 20260509031806 | 8 | 0 | 0.0 | 0.0 | 0.00 | 0.00 | 0.00 | 89 | 1016.8 |
| 20260509030903 | 8 | 65 | 0.0 | 1.6 | 0.00 | 0.00 | 0.00 | 89 | 1016.9 |
| 20260509030003 | 8 | 65 | 0.0 | 1.6 | 0.00 | 0.00 | 0.00 | 89 | 1016.9 |
| 20260509025403 | 8 | 0 | 0.0 | 0.0 | 0.00 | 0.00 | 0.00 | 89 | 1016.9 |
| 20260509024503 | 8 | 65 | 0.0 | 1.6 | 0.00 | 0.00 | 0.00 | 89 | 1016.9 |
| 20260509023818 | 8 | 65 | 0.0 | 1.6 | 0.00 | 0.00 | 0.00 | 88 | 1017.0 |
| 20260509022703 | 8 | 65 | 0.0 | 1.6 | 0.00 | 0.00 | 0.00 | 88 | 1017.1 |
| 20260509021805 | 8 | 65 | 0.0 | 1.6 | 0.00 | 0.00 | 0.00 | 88 | 1017.1 |
| 20260509020903 | 8 | 65 | 0.0 | 3.2 | 0.00 | 0.00 | 0.00 | 88 | 1016.9 |
| 20260509020009 | 8 | 66 | 0.0 | 1.6 | 0.00 | 0.00 | 0.00 | 87 | 1017.0 |
| 20260509015403 | 8 | 66 | 0.0 | 1.6 | 0.00 | 0.00 | 0.00 | 87 | 1017.0 |
| 20260509014505 | 9 | 0 | 0.0 | 0.0 | 0.00 | 0.00 | 0.00 | 86 | 1017.0 |
| 20260509013603 | 9 | 65 | 0.0 | 1.6 | 0.00 | 0.00 | 0.00 | 85 | 1017.0 |
| 20260509012916 | 9 | 65 | 0.0 | 1.6 | 0.00 | 0.00 | 0.00 | 85 | 1017.1 |
| 20260509011804 | 10 | 65 | 0.0 | 4.8 | 0.00 | 0.00 | 0.00 | 85 | 1017.1 |
| 20260509010905 | 10 | 64 | 0.0 | 4.8 | 0.00 | 0.00 | 0.00 | 85 | 1017.2 |
| 20260509010005 | 10 | 64 | 0.0 | 4.8 | 0.00 | 0.00 | 0.00 | 84 | 1017.1 |
| 20260509005405 | 10 | 64 | 0.0 | 1.6 | 0.00 | 0.00 | 0.00 | 84 | 1017.2 |
| 20260509004504 | 10 | 65 | 0.0 | 1.6 | 0.00 | 0.00 | 0.00 | 83 | 1017.3 |
| 20260509003605 | 10 | 64 | 0.0 | 4.8 | 0.00 | 0.00 | 0.00 | 83 | 1017.2 |
| 20260509002706 | 10 | 71 | 1.6 | 6.4 | 0.00 | 0.00 | 0.00 | 83 | 1017.1 |
| 20260509002014 | 10 | 81 | 1.6 | 6.4 | 0.00 | 0.00 | 0.00 | 83 | 1017.1 |
| 20260509001116 | 10 | 82 | 1.6 | 3.2 | 0.00 | 0.00 | 0.00 | 82 | 1017.2 |
| 20260509000003 | 10 | 82 | 0.0 | 4.8 | 0.00 | 0.00 | 0.00 | 82 | 1017.2 |
| 20260508235405 | 10 | 82 | 0.0 | 4.8 | 0.00 | 0.00 | 0.00 | 82 | 1017.2 |
| 20260508234718 | 10 | 82 | 0.0 | 3.2 | 0.00 | 0.00 | 0.00 | 81 | 1017.3 |
| 20260508233603 | 10 | 82 | 0.0 | 3.2 | 0.00 | 0.00 | 0.00 | 80 | 1017.2 |
| 20260508232705 | 11 | 82 | 0.0 | 3.2 | 0.00 | 0.00 | 0.00 | 80 | 1017.2 |
| 20260508231803 | 11 | 82 | 1.6 | 4.8 | 0.00 | 0.00 | 0.00 | 80 | 1017.3 |
| 20260508230905 | 11 | 82 | 1.6 | 6.4 | 0.00 | 0.00 | 0.00 | 80 | 1017.3 |
| 20260508230214 | 11 | 82 | 0.0 | 3.2 | 0.00 | 0.00 | 0.00 | 79 | 1017.2 |
| 20260508225403 | 11 | 81 | 1.6 | 4.8 | 0.00 | 0.00 | 0.00 | 79 | 1017.2 |
| 20260508224503 | 11 | 81 | 0.0 | 4.8 | 0.00 | 0.00 | 0.00 | 78 | 1017.2 |
| 20260508223605 | 11 | 81 | 0.0 | 1.6 | 0.00 | 0.00 | 0.00 | 77 | 1017.3 |
| 20260508222704 | 11 | 81 | 0.0 | 3.2 | 0.00 | 0.00 | 0.00 | 77 | 1017.4 |
| 20260508221803 | 11 | 81 | 0.0 | 4.8 | 0.00 | 0.00 | 0.00 | 76 | 1017.3 |
| 20260508220905 | 11 | 81 | 0.0 | 1.6 | 0.00 | 0.00 | 0.00 | 75 | 1017.3 |
| 20260508220003 | 12 | 81 | 0.0 | 1.6 | 0.00 | 0.00 | 0.00 | 74 | 1017.4 |
| 20260508215403 | 12 | 81 | 0.0 | 1.6 | 0.00 | 0.00 | 0.00 | 74 | 1017.3 |
| 20260508214504 | 12 | 81 | 1.6 | 4.8 | 0.00 | 0.00 | 0.00 | 74 | 1017.3 |
| 20260508213603 | 12 | 82 | 0.0 | 6.4 | 0.00 | 0.00 | 0.00 | 73 | 1017.3 |
| 20260508212924 | 12 | 82 | 1.6 | 6.4 | 0.00 | 0.00 | 0.00 | 73 | 1017.3 |
| 20260508212016 | 12 | 83 | 1.6 | 4.8 | 0.00 | 0.00 | 0.00 | 72 | 1017.3 |
| 20260508210904 | 13 | 83 | 1.6 | 6.4 | 0.00 | 0.00 | 0.00 | 71 | 1017.2 |
| 20260508210003 | 13 | 80 | 1.6 | 6.4 | 0.00 | 0.00 | 0.00 | 71 | 1017.1 |
| 20260508205405 | 13 | 77 | 1.6 | 6.4 | 0.00 | 0.00 | 0.00 | 70 | 1017.0 |
| 20260508203603 | 13 | 96 | 1.6 | 6.4 | 0.00 | 0.00 | 0.00 | 69 | 1016.9 |
| 20260508202914 | 13 | 99 | 1.6 | 6.4 | 0.00 | 0.00 | 0.00 | 68 | 1016.9 |
| 20260508201803 | 13 | 87 | 1.6 | 8.0 | 0.00 | 0.00 | 0.00 | 67 | 1016.9 |
| 20260508200903 | 14 | 87 | 1.6 | 9.7 | 0.00 | 0.00 | 0.00 | 66 | 1016.9 |
| 20260508200216 | 14 | 83 | 3.2 | 11.3 | 0.00 | 0.00 | 0.00 | 65 | 1016.7 |
| 20260508195406 | 14 | 80 | 1.6 | 11.3 | 0.00 | 0.00 | 0.00 | 65 | 1016.7 |
| 20260508193605 | 15 | 77 | 3.2 | 6.4 | 0.00 | 0.00 | 0.00 | 63 | 1016.5 |
| 20260508192703 | 15 | 93 | 3.2 | 11.3 | 0.00 | 0.00 | 0.00 | 62 | 1016.4 |
| 20260508192017 | 15 | 91 | 4.8 | 14.5 | 0.00 | 0.00 | 0.00 | 61 | 1016.4 |
| 20260508190904 | 15 | 85 | 4.8 | 16.1 | 0.00 | 0.00 | 0.00 | 61 | 1016.1 |
| 20260508190005 | 16 | 93 | 4.8 | 14.5 | 0.00 | 0.00 | 0.00 | 62 | 1016.0 |
| 20260508185406 | 16 | 90 | 4.8 | 14.5 | 0.00 | 0.00 | 0.00 | 61 | 1016.0 |
| 20260508184506 | 16 | 78 | 4.8 | 14.5 | 0.00 | 0.00 | 0.00 | 62 | 1015.9 |
| 20260508183603 | 16 | 82 | 3.2 | 11.3 | 0.00 | 0.00 | 0.00 | 62 | 1015.9 |
| 20260508182705 | 16 | 79 | 3.2 | 11.3 | 0.00 | 0.00 | 0.00 | 61 | 1015.7 |
| 20260508181805 | 16 | 92 | 4.8 | 12.9 | 0.00 | 0.00 | 0.00 | 61 | 1015.5 |
| 20260508180905 | 17 | 82 | 3.2 | 16.1 | 0.00 | 0.00 | 0.00 | 61 | 1015.4 |
| 20260508175406 | 17 | 91 | 3.2 | 14.5 | 0.00 | 0.00 | 0.00 | 61 | 1015.3 |
| 20260508174716 | 17 | 94 | 3.2 | 12.9 | 0.00 | 0.00 | 0.00 | 61 | 1015.4 |
| 20260508173605 | 17 | 82 | 3.2 | 14.5 | 0.00 | 0.00 | 0.00 | 61 | 1015.4 |
| 20260508172916 | 17 | 89 | 4.8 | 11.3 | 0.00 | 0.00 | 0.00 | 60 | 1015.4 |
| 20260508171803 | 17 | 106 | 3.2 | 12.9 | 0.00 | 0.00 | 0.00 | 61 | 1015.4 |
| 20260508170905 | 17 | 79 | 4.8 | 16.1 | 0.00 | 0.00 | 0.00 | 60 | 1015.4 |
| 20260508170004 | 17 | 80 | 3.2 | 11.3 | 0.00 | 0.00 | 0.00 | 60 | 1015.4 |
| 20260508165405 | 17 | 94 | 1.6 | 11.3 | 0.00 | 0.00 | 0.00 | 60 | 1015.4 |
| 20260508163605 | 17 | 85 | 3.2 | 12.9 | 0.00 | 0.00 | 0.00 | 60 | 1015.3 |
| 20260508162703 | 17 | 89 | 3.2 | 12.9 | 0.00 | 0.00 | 0.00 | 60 | 1015.2 |
| 20260508161805 | 17 | 79 | 3.2 | 14.5 | 0.00 | 0.00 | 0.00 | 60 | 1015.2 |
| 20260508160906 | 17 | 93 | 3.2 | 14.5 | 0.00 | 0.00 | 0.00 | 60 | 1015.2 |
| 20260508160006 | 17 | 88 | 3.2 | 12.9 | 0.00 | 0.00 | 0.00 | 59 | 1015.1 |
| 20260508155403 | 17 | 82 | 3.2 | 11.3 | 0.00 | 0.00 | 0.00 | 60 | 1015.1 |
| 20260508154503 | 17 | 96 | 3.2 | 9.7 | 0.00 | 0.00 | 0.00 | 59 | 1015.1 |
| 20260508153606 | 17 | 87 | 4.8 | 14.5 | 0.00 | 0.00 | 0.00 | 59 | 1015.2 |
| 20260508152917 | 17 | 94 | 3.2 | 9.7 | 0.00 | 0.00 | 0.00 | 59 | 1015.1 |
| 20260508151804 | 18 | 73 | 3.2 | 12.9 | 0.00 | 0.00 | 0.00 | 57 | 1015.2 |
| 20260508150903 | 18 | 63 | 3.2 | 11.3 | 0.00 | 0.00 | 0.00 | 58 | 1015.2 |
| 20260508150004 | 18 | 56 | 3.2 | 9.7 | 0.00 | 0.00 | 0.00 | 58 | 1015.2 |
| 20260508145616 | 18 | 38 | 3.2 | 8.0 | 0.00 | 0.00 | 0.00 | 58 | 1015.2 |
| 20260508144503 | 18 | 70 | 3.2 | 11.3 | 0.00 | 0.00 | 0.00 | 57 | 1015.3 |
| 20260508143603 | 18 | 69 | 1.6 | 11.3 | 0.00 | 0.00 | 0.00 | 57 | 1015.3 |
| 20260508142703 | 17 | 83 | 1.6 | 9.7 | 0.00 | 0.00 | 0.00 | 56 | 1015.3 |
| 20260508141803 | 18 | 86 | 1.6 | 11.3 | 0.00 | 0.00 | 0.00 | 55 | 1015.3 |
| 20260508141113 | 18 | 70 | 3.2 | 11.3 | 0.00 | 0.00 | 0.00 | 55 | 1015.3 |
| 20260508140006 | 18 | 35 | 1.6 | 9.7 | 0.00 | 0.00 | 0.00 | 56 | 1015.2 |
| 20260508135405 | 17 | 64 | 1.6 | 9.7 | 0.00 | 0.00 | 0.00 | 55 | 1015.2 |
| 20260508134503 | 17 | 117 | 1.6 | 6.4 | 0.00 | 0.00 | 0.00 | 56 | 1015.3 |
| 20260508133816 | 17 | 117 | 1.6 | 6.4 | 0.00 | 0.00 | 0.00 | 56 | 1015.2 |
| 20260508132703 | 17 | 130 | 1.6 | 8.0 | 0.00 | 0.00 | 0.00 | 56 | 1015.4 |
| 20260508132016 | 17 | 148 | 1.6 | 8.0 | 0.00 | 0.00 | 0.00 | 55 | 1015.5 |
| 20260508130903 | 17 | 149 | 0.0 | 8.0 | 0.00 | 0.00 | 0.00 | 56 | 1015.7 |
| 20260508130005 | 17 | 149 | 0.0 | 3.2 | 0.00 | 0.00 | 0.00 | 55 | 1015.8 |
| 20260508125617 | 17 | 149 | 0.0 | 4.8 | 0.00 | 0.00 | 0.00 | 55 | 1015.9 |
| 20260508124505 | 17 | 155 | 1.6 | 8.0 | 0.00 | 0.00 | 0.00 | 55 | 1015.8 |
| 20260508123817 | 16 | 159 | 1.6 | 6.4 | 0.00 | 0.00 | 0.00 | 57 | 1015.9 |
| 20260508122703 | 16 | 161 | 1.6 | 6.4 | 0.00 | 0.00 | 0.00 | 58 | 1015.9 |
| 20260508121803 | 16 | 151 | 1.6 | 6.4 | 0.00 | 0.00 | 0.00 | 59 | 1015.9 |
| 20260508121114 | 16 | 142 | 1.6 | 6.4 | 0.00 | 0.00 | 0.00 | 59 | 1015.9 |
| 20260508120005 | 16 | 144 | 1.6 | 6.4 | 0.00 | 0.00 | 0.00 | 60 | 1016.0 |
| 20260508115404 | 16 | 136 | 1.6 | 6.4 | 0.00 | 0.00 | 0.00 | 61 | 1016.0 |
| 20260508114503 | 16 | 129 | 1.6 | 4.8 | 0.00 | 0.00 | 0.00 | 62 | 1016.0 |
| 20260508113605 | 16 | 139 | 1.6 | 6.4 | 0.00 | 0.00 | 0.00 | 61 | 1016.0 |
| 20260508112705 | 16 | 136 | 1.6 | 3.2 | 0.00 | 0.00 | 0.00 | 61 | 1016.0 |
| 20260508111803 | 16 | 119 | 1.6 | 9.7 | 0.00 | 0.00 | 0.00 | 60 | 1016.0 |
| 20260508110903 | 16 | 114 | 3.2 | 9.7 | 0.00 | 0.00 | 0.00 | 61 | 1015.9 |
| 20260508110004 | 16 | 125 | 1.6 | 9.7 | 0.00 | 0.00 | 0.00 | 59 | 1016.0 |
| 20260508105403 | 16 | 102 | 3.2 | 9.7 | 0.00 | 0.00 | 0.00 | 61 | 1015.9 |
| 20260508104506 | 16 | 126 | 1.6 | 11.3 | 0.00 | 0.00 | 0.00 | 61 | 1015.9 |
| 20260508103818 | 16 | 162 | 3.2 | 8.0 | 0.00 | 0.00 | 0.00 | 59 | 1016.0 |
| 20260508102705 | 16 | 127 | 1.6 | 4.8 | 0.00 | 0.00 | 0.00 | 60 | 1015.9 |
| 20260508101805 | 16 | 111 | 3.2 | 11.3 | 0.00 | 0.00 | 0.00 | 59 | 1016.0 |
| 20260508100904 | 16 | 154 | 1.6 | 8.0 | 0.00 | 0.00 | 0.00 | 60 | 1016.0 |
| 20260508100212 | 16 | 148 | 1.6 | 6.4 | 0.00 | 0.00 | 0.00 | 60 | 1016.0 |